[[{"header":{"parameterUnit":"m.s-1","parameterCategory":1,"la1":30.2991,"la2":30.254,"lo1":-89.0895,"lo2":-89.0444,"dy":0.0017,"dx":0.0017,"nx":28,"ny":28,"refTime":"2024-07-10T03:00:00:Z","depth":0,"parameterNumber":2,"parameterNumberName":"U-component_of_WINDS"},"data":[0,0,0,0,0,0,0,0,0,0,0,0,0,0,0,0,0,0,0,0,0,0,0,0,0,0,0,0,0,0,0,0,0,0,0,0,0,0,0,0,0,0,0,0,0,0,0,0,0,0,0,0,0,0,0,0,0,0,4.5811,4.5813,0,4.5986,4.5988,4.599,4.5942,4.5938,4.5935,4.5931,4.6112,4.612,4.6128,0,0,0,0,0,0,0,0,0,0,0,0,0,4.5433,4.544,4.5811,4.5813,4.5815,4.5985,4.5988,4.599,4.5942,4.5938,4.5934,4.593,4.6109,4.6119,4.6129,0,0,0,0,0,0,0,0,0,0,0,0,0,4.5601,4.5442,4.581,4.5812,4.5813,4.5985,4.5988,4.5991,4.5943,4.5938,4.5932,4.5928,4.6106,4.6118,4.613,4.6311,0,0,4.6167,4.6172,0,0,0,0,0,0,0,0,4.5592,4.5615,4.5809,4.5812,4.5814,4.5936,4.5921,4.6098,4.5944,4.5894,4.5931,4.5925,4.6058,4.6074,4.6118,4.632,4.6328,4.6168,4.6176,4.6181,4.6184,0,0,0,0,0,0,0,4.558,4.5607,4.588,4.5812,4.5815,4.5803,4.5821,4.5954,4.6004,4.5898,4.5895,4.5916,4.6058,4.6107,4.6122,4.633,4.6168,4.6179,4.6186,4.6191,4.6684,4.6689,0,0,0,0,0,0,4.5567,4.5598,4.5874,4.5885,4.5688,4.5814,4.5834,4.5903,4.6002,4.6012,4.5921,4.5913,4.6088,4.6108,4.6128,4.6343,4.6181,4.6192,4.6199,4.6678,4.6685,4.6691,0,0,0,0,0,0,4.5559,4.5592,4.5867,4.5741,4.5775,4.5826,4.5903,4.5909,4.5957,4.6019,4.6028,4.5961,4.6085,4.6111,4.6265,4.6349,4.6198,4.6209,4.6671,4.668,4.6688,4.6777,0,0,0,0,0,0,4.5548,4.5589,4.566,4.5743,4.5782,4.6002,4.5909,4.5916,4.5978,4.597,4.6059,4.6069,4.6083,4.6247,4.6277,4.6363,4.6218,4.6664,4.6675,4.6685,4.6767,4.6788,4.6805,0,0,0,0,0,4.5535,4.5679,4.5663,4.5697,4.5871,4.6007,4.6029,4.6042,4.5985,4.6055,4.6094,4.6066,4.6335,4.6263,4.6296,4.6387,4.6658,4.6672,4.6685,4.6758,4.6783,4.6805,0,0,0,0,0,0,4.5606,4.569,4.5674,4.5849,4.5921,4.5998,4.6088,4.6069,4.6159,4.6148,4.616,4.6181,4.6337,4.6378,4.6296,4.6565,4.6488,4.6509,4.6533,4.6558,4.6577,4.6562,4.6228,0,0,0,0,0,4.5642,4.5746,4.5814,4.5962,4.5999,4.6037,4.6097,4.61,4.6175,4.6205,4.6256,4.633,4.643,4.6497,4.6593,4.6773,4.6789,4.6851,4.6871,4.6886,4.6903,4.6996,4.7023,4.6734,4.6734,4.6734,0,0,4.5718,4.5776,4.5842,4.5978,4.6033,4.6139,4.6063,4.6179,4.6257,4.6223,4.637,4.641,4.6493,4.6658,4.6734,4.6697,4.6987,4.6903,4.6915,4.6923,4.7012,4.704,4.7064,4.6743,4.6741,4.674,0,0,4.5909,4.5965,4.6092,4.6149,4.6234,4.6258,4.6288,4.6368,4.6392,4.654,4.6515,4.6608,4.6782,4.6841,4.6893,4.7102,4.7078,4.7133,4.7234,4.7325,4.7347,4.7367,4.7438,4.7463,4.715,4.7151,4.7151,0,4.5992,4.6151,4.6161,4.6277,4.6336,4.6309,4.6436,4.6491,4.6604,4.6644,4.6601,4.6816,4.6871,4.7047,4.7098,4.7143,4.7176,4.7123,4.7343,4.7364,4.7383,4.745,4.7477,4.7156,4.7156,4.7155,4.7155,0,4.6247,4.6357,4.6449,4.6556,4.6625,4.6748,4.6774,4.6843,4.684,4.6868,4.7016,4.7079,4.7186,4.7229,4.7228,4.7405,4.7378,4.734,4.7262,4.7416,4.7479,4.7505,4.7165,4.7163,4.7161,4.7159,0,0,4.6489,4.6596,4.663,4.6676,4.6766,4.685,4.697,4.7072,4.7129,4.7208,4.7306,4.7452,4.7415,4.7475,4.748,4.756,4.7715,4.751,4.7512,4.7543,4.7909,4.7935,4.7965,4.77,4.7705,4.7709,4.79,0,4.6685,4.6894,4.6904,4.7093,4.7193,4.7166,4.7269,4.7335,4.7363,4.7451,4.7483,4.7584,4.753,4.7565,4.7643,4.768,4.7788,4.7666,4.7789,4.7794,4.7766,4.7999,4.8028,4.8205,4.7926,4.793,4.7933,0,4.6942,4.7024,4.7223,4.7294,4.7336,4.7429,4.7521,4.7606,4.7678,4.7693,4.7758,4.775,4.787,4.7789,4.7952,4.7869,4.792,4.7945,4.7952,4.7962,4.7871,4.8012,4.8263,4.8288,4.7973,4.797,4.7967,0,4.7093,4.7255,4.7393,4.7434,4.7521,4.7586,4.7626,4.7693,4.7752,4.7833,4.7871,4.7966,4.8017,4.809,4.8107,4.8047,4.8269,4.8191,4.8282,4.8281,4.8328,4.8325,4.8588,4.8367,4.8366,4.8366,4.8365,0,4.7309,4.7431,4.7461,4.7546,4.768,4.7691,4.7823,4.7858,4.7917,4.8007,4.7991,4.8076,4.8094,4.8182,4.8197,4.8327,4.8352,4.8365,4.8367,4.8365,4.8362,4.8397,4.8383,4.8373,4.8371,4.837,4.8369,0,4.7501,4.7527,4.7675,4.7744,4.7764,4.786,4.7918,4.7999,4.8024,4.8138,4.8165,4.8205,4.8307,4.8331,4.8454,4.8463,4.8616,4.8608,4.8591,4.859,4.8678,4.8668,4.897,4.9009,4.8765,4.8767,4.8769,0,4.7636,4.7728,4.7806,4.7864,4.7906,4.8001,4.806,4.8073,4.8136,4.8222,4.8291,4.8391,4.8471,4.8635,4.8675,4.8767,4.8759,4.8858,4.8773,4.8766,4.8756,4.8749,4.8756,4.8874,4.8876,4.8879,4.888,0,4.7871,4.7877,4.7964,4.8054,4.8124,4.8196,4.8265,4.8314,4.8335,4.8406,4.8509,4.8571,4.8694,4.8792,4.8884,4.8923,4.8905,4.8907,4.8932,4.893,4.8914,4.892,4.8632,4.89,4.8898,4.8896,4.8895,4.8894,4.8036,4.8114,4.818,4.8275,4.8327,4.8391,4.8468,4.8501,4.8587,4.8687,4.869,4.8801,4.8867,4.8988,4.9033,4.9119,4.9088,4.9126,4.9135,4.9144,4.9149,4.8903,4.9136,4.9136,4.9135,4.9135,4.9135,0,4.8266,4.8306,4.8394,4.8488,4.8562,4.8538,4.8611,4.8674,4.8772,4.8835,4.8913,4.9029,4.9123,4.9169,4.9261,4.9321,4.9314,4.9344,4.9339,4.9347,4.9174,4.914,4.9348,4.9348,4.9348,4.9348,4.9348,4.9348,4.8395,4.8525,4.8539,4.8694,4.8734,4.8841,4.8884,4.8942,4.8991,4.9121,4.9198,4.9227,4.9282,4.9377,4.9461,4.9472,4.9505,4.9539,4.9545,4.9382,4.936,4.9339,4.9308,4.9547,4.9547,4.9711,4.9713,4.9714]},{"header":{"parameterUnit":"m.s-1","parameterCategory":1,"la1":30.2991,"la2":30.254,"lo1":-89.0895,"lo2":-89.0444,"dy":0.0017,"dx":0.0017,"nx":28,"ny":28,"refTime":"2024-07-10T03:00:00:Z","depth":0,"parameterNumber":3,"parameterNumberName":"V-component_of_WINDS"},"data":[0,0,0,0,0,0,0,0,0,0,0,0,0,0,0,0,0,0,0,0,0,0,0,0,0,0,0,0,0,0,0,0,0,0,0,0,0,0,0,0,0,0,0,0,0,0,0,0,0,0,0,0,0,0,0,0,0,0,2.3634,2.3635,0,2.3726,2.3727,2.3728,2.3724,2.3723,2.3721,2.372,2.3812,2.3816,2.3819,0,0,0,0,0,0,0,0,0,0,0,0,0,2.3453,2.3457,2.3634,2.3635,2.3636,2.3725,2.3727,2.3728,2.3724,2.3723,2.3721,2.372,2.3811,2.3815,2.382,0,0,0,0,0,0,0,0,0,0,0,0,0,2.3537,2.3458,2.3634,2.3645,2.3647,2.3725,2.3727,2.3728,2.3724,2.3722,2.3721,2.3719,2.381,2.3815,2.382,2.3892,0,0,2.3837,2.3839,0,0,0,0,0,0,0,0,2.3532,2.3543,2.3643,2.3645,2.3647,2.3711,2.3697,2.3783,2.3725,2.3695,2.372,2.3718,2.378,2.3788,2.3809,2.3897,2.3901,2.3837,2.3841,2.3843,2.3845,0,0,0,0,0,0,0,2.3526,2.354,2.367,2.3644,2.3647,2.3645,2.3655,2.3713,2.3747,2.3698,2.3697,2.3708,2.3781,2.3804,2.3811,2.3902,2.3837,2.3842,2.3846,2.3848,2.405,2.4052,0,0,0,0,0,0,2.3518,2.3535,2.3667,2.3673,2.3584,2.365,2.366,2.3693,2.3747,2.3753,2.371,2.3708,2.3796,2.3805,2.3815,2.3901,2.3843,2.3848,2.3851,2.4048,2.4051,2.4053,0,0,0,0,0,0,2.3515,2.353,2.3664,2.3604,2.3621,2.3655,2.3691,2.3695,2.3718,2.3756,2.3762,2.3727,2.3794,2.3807,2.3873,2.3904,2.3851,2.3856,2.4046,2.4049,2.4052,2.4074,0,0,0,0,0,0,2.3509,2.3529,2.3558,2.3605,2.3624,2.3721,2.3693,2.3699,2.3728,2.3726,2.3774,2.378,2.3794,2.3864,2.3878,2.391,2.386,2.4043,2.4047,2.4051,2.4071,2.4078,2.4084,0,0,0,0,0,2.3503,2.3561,2.3559,2.3575,2.3661,2.3723,2.3734,2.3749,2.3731,2.3759,2.3783,2.3778,2.3898,2.3871,2.3886,2.3921,2.4041,2.4046,2.405,2.4068,2.4077,2.4084,0,0,0,0,0,0,2.3517,2.3567,2.3566,2.3641,2.3678,2.3722,2.3759,2.3758,2.3801,2.3797,2.3814,2.3825,2.389,2.3912,2.3881,2.3992,2.3967,2.3975,2.3975,2.3984,2.399,2.3983,2.3864,0,0,0,0,0,2.3529,2.3576,2.3617,2.3679,2.3698,2.3725,2.3753,2.3761,2.38,2.3815,2.3844,2.3881,2.3926,2.3956,2.4001,2.4074,2.4083,2.4105,2.4112,2.4117,2.4123,2.4161,2.4171,2.4068,2.4068,2.4068,0,0,2.3554,2.3587,2.3616,2.3683,2.3712,2.3759,2.3738,2.379,2.3824,2.3823,2.3886,2.3908,2.395,2.402,2.4052,2.404,2.4153,2.4123,2.4126,2.413,2.4167,2.4176,2.4185,2.4072,2.4071,2.407,0,0,2.3623,2.3654,2.3708,2.3737,2.3782,2.3799,2.3812,2.3856,2.3871,2.3935,2.3934,2.3975,2.4054,2.4083,2.4108,2.4186,2.4183,2.42,2.4233,2.427,2.4278,2.4285,2.4311,2.432,2.4206,2.4206,2.4206,0,2.3648,2.372,2.3735,2.3787,2.3815,2.3815,2.3869,2.3897,2.3954,2.3972,2.3959,2.4056,2.4085,2.416,2.4178,2.4199,2.4213,2.4194,2.4276,2.4283,2.429,2.4314,2.4324,2.4208,2.4208,2.4207,2.4207,0,2.3748,2.3797,2.3835,2.389,2.3922,2.3975,2.3996,2.4027,2.4032,2.405,2.4114,2.4148,2.4198,2.4216,2.4222,2.4291,2.4282,2.4272,2.4247,2.4301,2.4324,2.4334,2.421,2.421,2.4209,2.4209,0,0,2.3829,2.389,2.3903,2.3927,2.3975,2.4013,2.4064,2.4113,2.4138,2.4177,2.4219,2.4285,2.4275,2.4303,2.4312,2.4344,2.44,2.4329,2.4331,2.434,2.4476,2.4483,2.4494,2.4399,2.44,2.4402,2.4472,0,2.3902,2.3994,2.4008,2.4088,2.4132,2.4132,2.4176,2.421,2.4227,2.4267,2.4286,2.4332,2.4316,2.4333,2.4365,2.4387,2.4428,2.4382,2.4436,2.4438,2.4425,2.4506,2.4514,2.4578,2.4481,2.4483,2.4484,0,2.4,2.404,2.4125,2.4164,2.4184,2.4223,2.4268,2.4306,2.4343,2.4353,2.4384,2.4388,2.4439,2.4412,2.4482,2.445,2.4473,2.4487,2.4489,2.4494,2.4464,2.4512,2.46,2.4609,2.4499,2.4498,2.4497,0,2.4049,2.4124,2.4184,2.4204,2.4253,2.428,2.4301,2.4336,2.4364,2.4402,2.442,2.4464,2.4488,2.4521,2.4536,2.4516,2.4604,2.4579,2.4613,2.4612,2.4631,2.4629,2.4722,2.4648,2.4647,2.4647,2.4647,0,2.4128,2.4179,2.4206,2.4243,2.4299,2.4314,2.4369,2.4389,2.442,2.4459,2.4461,2.4498,2.4516,2.4555,2.4567,2.4621,2.4632,2.4641,2.4643,2.464,2.4639,2.4655,2.465,2.465,2.4649,2.4649,2.4648,0,2.4192,2.4213,2.4277,2.4317,2.4328,2.4367,2.4401,2.4435,2.4452,2.4502,2.4514,2.454,2.4586,2.4604,2.466,2.4668,2.473,2.4729,2.4717,2.4718,2.475,2.4746,2.4855,2.487,2.4787,2.4788,2.4788,0,2.4241,2.428,2.4324,2.435,2.4372,2.4415,2.4443,2.4458,2.4487,2.453,2.4559,2.4604,2.4641,2.4714,2.4737,2.4779,2.4779,2.4814,2.4785,2.478,2.4777,2.4774,2.4777,2.4819,2.482,2.4821,2.4821,0,2.4325,2.4332,2.4373,2.4416,2.4449,2.4484,2.4518,2.4539,2.4559,2.4591,2.4637,2.4666,2.4722,2.4766,2.4809,2.4829,2.4828,2.483,2.484,2.4837,2.4827,2.4831,2.473,2.4828,2.4827,2.4826,2.4826,2.4826,2.4382,2.4415,2.4451,2.4495,2.4522,2.4553,2.4586,2.4607,2.4646,2.4693,2.4699,2.4748,2.4782,2.4839,2.4861,2.4899,2.489,2.4904,2.4908,2.4911,2.4912,2.4822,2.4907,2.4907,2.4907,2.4907,2.4906,0,2.4464,2.4486,2.4527,2.4573,2.4607,2.4604,2.464,2.4668,2.4712,2.4743,2.4779,2.4831,2.4874,2.49,2.4942,2.4967,2.4967,2.4977,2.4975,2.4979,2.4919,2.4905,2.4976,2.4976,2.4976,2.4976,2.4976,2.4976,2.4511,2.4567,2.4578,2.4647,2.4668,2.4717,2.4738,2.4765,2.479,2.4848,2.4883,2.49,2.4929,2.4973,2.5011,2.5017,2.5032,2.5042,2.5048,2.4991,2.4984,2.4977,2.4964,2.5046,2.5046,2.5105,2.5105,2.5106]}]]